Location: Équennes
(49.7375°N, 1.9622°E)
Time: 01:01:35
(UTC+00:00)

SL-16 R/B - Pass Details

Date: 28 January 2023
Orbit: 842 x 846 km, 71.0° (Epoch: 30 March)

Event Time Altitude Azimuth Distance (km) Brightness Sun altitude
Rises 18:13:57 0° 172° (S) 3,385 5.4 -15.1°
Reaches altitude 10° 18:16:41 10° 161° (SSE) 2,456 4.5 -15.6°
Maximum altitude 18:21:23 28° 104° (ESE) 1,541 3.0 -16.3°
Enters shadow 18:22:25 26° 86° (E) 1,600 3.0 -16.5°
